Theta_e
341 342 343 343 343 344 344 344 345 347 348 348 348 348 345 343 344 343 346 351 350 348 348 349 350 350 350 348 349 345 342 340 336 340 345 348 346 346 346 342 342 338 339
343 343 343 344 344 343 344 345 347 346 349 351 349 347 347 345 345 348 350 352 350 349 349 349 349 351 351 349 348 346 344 343 342 339 343 343 343 345 340 339 337 337 336
344 343 343 344 344 344 345 346 347 347 346 348 349 347 346 347 348 349 351 350 350 350 350 349 350 349 349 350 349 348 345 345 343 342 338 339 343 340 337 335 334 333 334
343 343 343 344 345 346 346 346 346 346 346 345 346 348 348 348 348 348 348 348 350 351 352 351 351 350 350 350 349 350 348 345 343 342 337 336 341 339 337 333 329 331 330
343 343 343 344 345 346 345 346 347 346 346 346 345 344 345 346 347 347 347 348 348 348 350 351 351 351 347 347 351 351 349 346 343 341 339 337 338 337 334 334 332 330 329
343 343 344 344 344 344 345 345 347 347 347 347 347 347 347 348 339 338 345 347 349 347 346 349 351 347 347 341 340 342 348 347 342 341 340 338 339 339 338 334 333 328 325
343 343 344 344 344 345 346 346 346 346 348 348 349 349 349 350 332 333 337 345 347 346 347 347 348 351 347 351 343 337 337 337 342 347 344 341 342 343 340 335 334 332 332
342 342 343 343 344 345 345 346 347 347 347 348 349 350 350 345 327 326 333 343 344 345 346 347 346 347 348 349 350 349 348 346 343 346 348 349 347 348 343 342 338 337 331
340 340 342 343 343 343 344 345 346 347 347 346 343 339 338 337 322 321 331 339 340 341 342 345 346 347 339 331 343 345 347 347 339 333 336 335 335 336 342 341 335 329 328
341 341 342 343 343 342 343 344 343 344 340 339 334 332 326 331 317 316 321 328 329 332 335 340 332 337 330 327 339 343 341 345 348 344 340 335 334 338 334 344 340 331 330
344 344 344 346 345 347 342 339 337 335 332 329 326 325 325 322 321 311 312 319 322 322 324 327 337 327 320 317 318 338 340 346 343 345 345 344 341 339 341 343 346 340 334
344 345 345 347 344 340 337 333 331 328 324 322 321 321 320 319 314 311 311 312 316 317 318 322 327 317 313 314 317 321 322 325 339 342 342 341 339 340 340 342 343 343 344
345 344 342 341 338 336 332 327 323 321 319 319 319 318 318 318 319 313 312 313 315 316 319 318 315 312 312 315 316 317 319 329 333 334 337 340 341 344 344 341 342 342 339
339 336 335 335 332 329 326 324 321 317 317 317 318 318 318 319 319 321 318 316 315 315 317 319 316 314 315 318 323 328 328 332 332 334 334 341 341 337 338 340 337 337 333
332 332 330 330 328 323 320 320 319 318 317 317 318 318 318 320 319 308 305 309 309 307 304 309 315 322 327 330 331 333 331 330 331 334 334 335 335 335 335 336 335 332 329
329 328 327 326 325 322 320 315 305 304 302 303 305 311 316 310 304 300 297 297 299 300 308 312 316 321 324 325 327 330 332 332 332 332 333 334 335 334 332 331 328 328 327
328 328 325 326 324 322 321 320 317 310 304 304 301 301 300 302 299 297 296 297 302 303 316 318 318 318 320 322 324 326 326 328 330 331 331 332 334 335 330 329 327 327 326
326 319 325 325 326 323 321 320 319 319 319 321 305 304 300 297 297 295 296 303 318 316 319 318 317 317 317 317 318 319 320 322 325 325 325 326 327 328 329 329 328 327 326
327 327 327 328 327 323 323 321 319 319 319 320 320 309 306 296 296 296 299 320 319 319 320 318 319 318 318 318 318 318 319 319 320 321 322 323 324 324 324 323 324 314 316
328 324 324 327 325 324 324 323 322 321 320 320 320 322 321 314 319 319 318 319 319 319 319 319 317 318 319 320 320 320 320 319 320 320 320 321 322 322 322 321 321 320 318
330 328 325 327 326 326 326 326 326 324 323 322 323 322 310 322 322 319 318 319 320 321 321 320 320 319 319 320 321 321 322 321 320 320 319 320 320 320 321 320 321 320 317
330 328 328 327 327 327 328 328 326 325 325 325 325 322 301 317 320 320 320 320 321 322 323 322 322 321 320 320 320 321 321 321 322 322 322 322 321 320 320 318 318 318 319
330 328 328 328 327 322 324 325 325 325 325 326 325 324 319 319 321 321 321 322 321 321 323 322 322 322 321 321 321 322 321 322 322 323 322 322 321 321 321 320 319 319 318
329 328 326 327 325 324 323 323 323 316 323 323 323 323 323 322 322 322 322 322 321 321 323 324 324 323 324 323 322 323 323 323 323 324 322 322 321 316 320 319 318 316 317
329 329 328 327 326 324 323 324 324 324 323 323 322 322 322 322 321 321 322 322 322 323 324 324 325 325 325 325 325 324 314 294 315 310 323 322 321 320 319 318 318 318 318
329 329 329 328 328 328 327 326 324 324 324 324 324 321 321 321 320 321 320 320 320 320 321 323 324 325 325 325 318 299 291 288 302 290 320 322 321 320 318 318 318 318 318
Wind_Speed
10 9 9 9 8 7 6 5 5 5 5 5 4 4 4 4 4 5 5 4 4 3 3 4 5 4 3 4 4 3 4 3 3 1 2 2 3 5 4 3 5 4 5
10 8 9 8 8 8 8 7 5 5 4 4 4 4 5 6 6 6 5 4 5 5 5 4 6 3 5 5 4 7 6 6 4 4 3 3 3 5 5 4 3 4 4
10 10 8 8 9 9 8 7 6 5 5 4 4 5 5 5 5 6 6 6 6 6 6 5 7 5 5 4 5 5 4 4 5 4 3 1 1 3 3 2 4 4 4
10 10 10 10 9 8 7 7 7 7 6 5 5 6 5 5 5 5 5 6 6 7 7 7 7 7 7 6 5 6 5 5 5 5 3 3 2 2 3 3 3 3 5
8 8 9 8 7 6 6 6 6 6 6 6 6 5 6 7 6 7 7 9 8 8 8 8 8 9 11 10 5 6 6 6 5 5 5 4 4 3 8 3 5 4 6
8 9 6 6 7 7 6 7 6 6 6 6 6 7 7 6 8 12 10 6 7 8 8 8 8 9 11 13 14 13 9 7 8 6 5 7 9 7 5 5 5 4 3
9 7 7 8 8 7 7 6 6 7 5 6 6 6 7 7 7 9 7 6 7 6 8 8 7 7 8 8 9 13 13 15 11 10 9 10 7 11 9 8 10 7 6
8 8 8 9 8 8 7 7 6 5 6 5 5 5 4 2 6 4 3 3 5 7 7 8 8 8 8 9 9 8 9 9 12 9 11 11 11 10 14 12 11 8 1
9 9 9 9 9 8 8 8 6 5 4 3 2 4 3 4 7 7 7 4 6 8 6 7 8 9 10 11 8 10 10 9 9 15 15 11 8 11 11 7 7 7 5
11 10 9 9 9 9 8 6 4 3 5 5 5 4 5 4 8 8 8 4 7 6 8 9 8 10 10 11 8 9 10 10 8 5 5 8 9 8 12 13 10 10 6
4 5 9 9 9 7 6 4 6 7 7 5 5 4 5 5 5 8 9 4 5 6 6 7 7 9 9 10 10 8 12 8 7 6 7 6 6 7 8 11 11 11 9
6 8 6 7 7 7 10 6 7 8 7 6 5 4 3 4 5 5 7 3 5 6 7 7 8 10 12 11 8 11 14 7 4 5 5 6 6 6 7 8 11 10 8
7 8 7 7 6 10 10 8 5 6 6 5 4 3 3 3 3 5 5 6 8 6 6 9 14 14 15 8 11 11 5 4 5 5 6 6 5 5 6 6 8 8 8
9 10 7 3 5 6 5 6 5 5 6 5 4 3 2 1 2 4 5 6 8 7 9 7 9 13 15 12 8 4 4 4 5 5 6 4 3 3 5 5 5 6 5
9 6 15 4 9 7 7 3 4 1 5 6 3 3 3 2 1 3 4 6 5 7 9 5 5 4 4 4 3 3 3 4 5 6 5 5 4 4 5 4 4 4 5
10 10 12 13 11 6 2 5 8 7 9 10 7 3 2 3 6 8 10 9 10 4 2 4 4 4 4 3 3 3 3 5 4 4 4 5 5 5 5 3 2 5 6
11 12 10 14 16 8 6 3 5 2 5 6 5 5 6 5 6 9 10 7 5 4 4 5 5 4 4 4 4 3 3 2 3 2 3 3 3 3 4 4 5 4 5
12 15 11 13 14 7 7 5 3 4 4 2 7 8 9 6 9 7 10 4 3 2 4 6 5 4 4 4 4 3 3 3 2 2 3 2 2 2 3 4 4 5 5
10 9 10 10 16 16 8 4 4 3 3 2 1 2 4 5 7 7 3 1 3 3 4 4 5 5 4 4 4 3 3 3 2 2 2 2 2 2 3 2 2 3 4
8 6 7 7 12 12 7 7 5 4 4 4 4 4 2 2 2 2 1 1 3 3 4 3 2 3 4 5 4 4 4 4 4 3 3 3 3 2 2 2 1 1 1
6 5 8 4 9 9 8 8 6 5 5 5 7 4 7 4 3 4 3 3 3 5 4 3 2 1 2 3 4 4 5 4 4 3 3 3 3 3 4 3 3 4 3
4 3 4 5 7 6 7 6 6 6 5 6 6 2 8 5 5 6 5 4 5 7 5 4 3 1 0 1 2 3 4 4 4 4 4 4 4 4 4 4 4 4 4
7 6 6 5 6 7 6 6 5 5 6 6 4 3 4 6 6 7 7 6 5 7 6 5 4 2 2 2 2 2 1 1 1 1 2 3 3 4 4 4 4 4 4
6 7 8 7 7 6 6 6 6 7 5 4 4 4 5 7 5 7 6 6 5 7 6 5 5 5 4 4 3 3 3 3 3 2 2 2 2 2 1 2 3 3 2
7 6 7 7 7 6 7 7 6 5 5 5 5 5 5 5 4 4 4 4 6 6 6 6 6 6 7 7 6 6 6 7 6 4 4 4 4 5 4 3 3 3 3
7 9 7 6 5 5 5 5 6 6 7 6 6 6 5 2 2 3 3 4 5 5 5 3 3 4 5 4 5 8 5 7 7 9 6 5 5 5 5 6 7 5 6
Wind_Direction
188 188 188 190 193 183 193 205 203 198 212 209 230 175 195 215 222 223 236 252 253 240 254 233 234 208 222 223 213 233 234 199 221 232 205 157 155 159 164 152 138 133 159
186 184 197 184 179 188 198 202 194 210 207 210 211 208 197 201 218 216 233 229 228 243 242 241 252 240 225 204 207 219 219 211 202 231 189 168 188 167 138 152 153 174 178
174 181 184 190 185 194 197 190 189 203 221 226 212 218 221 226 225 227 230 244 242 241 240 235 249 240 250 222 212 222 224 207 204 212 195 178 136 158 143 142 175 177 196
176 181 185 191 190 192 188 185 191 198 214 224 228 233 238 244 245 257 254 249 253 252 251 244 244 238 242 239 224 225 214 211 207 206 186 189 166 163 157 175 190 195 195
177 182 196 187 174 167 183 194 199 204 213 217 222 226 231 234 237 238 238 243 233 245 250 248 245 237 236 230 224 228 208 204 198 207 210 190 189 170 209 171 202 187 207
181 196 176 166 166 182 185 196 199 212 215 215 220 228 237 237 223 226 233 243 243 236 246 253 252 246 238 232 227 225 201 202 209 204 207 215 209 201 188 183 179 168 236
185 182 178 169 172 181 188 187 203 216 210 222 238 232 246 252 253 252 231 232 245 242 246 251 256 257 248 255 244 240 227 211 205 201 217 214 207 201 180 186 197 201 211
188 181 180 180 189 187 189 197 200 196 214 216 229 246 266 28 27 346 293 248 253 250 245 244 241 257 250 244 254 255 253 229 221 218 221 229 221 189 190 197 203 207 170
201 195 191 192 194 187 194 194 193 179 176 167 114 118 112 81 49 20 357 333 288 286 281 260 256 259 255 252 250 258 259 258 228 220 224 233 202 189 187 157 179 177 209
209 205 193 194 195 192 197 180 157 151 134 128 124 101 97 108 89 47 13 329 308 306 300 289 260 260 268 260 244 247 255 252 245 223 225 240 231 218 188 195 182 194 182
221 215 187 194 193 177 140 144 138 127 126 106 94 72 64 45 33 35 23 4 333 317 303 300 296 268 256 268 251 251 249 257 240 228 230 225 211 208 202 209 205 198 196
176 172 196 198 161 148 139 134 139 131 115 107 106 97 66 32 21 22 15 359 323 304 294 288 282 309 307 288 273 246 251 268 256 239 232 236 224 210 209 221 218 212 222
169 164 163 157 169 149 145 139 133 128 124 110 107 90 46 30 30 342 319 297 292 280 272 273 278 284 285 281 253 252 249 222 236 239 230 226 231 241 215 195 204 202 207
152 134 104 314 181 135 121 128 154 139 117 119 129 120 105 29 2 1 348 327 307 291 281 277 282 274 266 260 280 244 224 215 216 233 244 236 193 217 214 204 207 200 197
63 44 77 9 270 145 109 118 142 89 125 135 143 146 150 71 38 338 304 315 316 300 311 285 278 270 276 261 248 250 226 221 226 231 229 229 195 192 226 198 189 174 199
122 118 133 102 336 325 117 114 34 89 97 92 120 151 158 237 317 321 304 315 329 297 256 281 287 286 288 281 277 274 244 236 236 234 235 231 214 199 214 195 171 188 207
152 142 131 127 115 283 297 238 152 125 132 149 184 200 216 252 300 293 305 328 340 309 306 315 330 353 351 350 343 333 315 316 313 282 261 261 240 204 196 198 201 188 211
185 182 153 139 145 146 245 250 228 168 141 161 215 214 230 230 254 279 293 340 4 355 329 324 329 344 351 355 355 346 331 325 314 324 298 309 318 276 212 218 205 209 214
164 173 169 163 135 158 184 201 229 182 148 179 216 168 211 214 247 268 274 2 324 350 319 336 341 347 355 358 359 351 347 353 351 346 344 336 324 302 275 262 250 219 157
214 233 236 176 138 124 156 195 200 200 195 217 229 224 137 112 207 232 206 257 305 297 285 306 330 8 5 9 9 0 0 16 20 10 12 11 13 3 338 341 325 141 196
198 191 182 156 118 135 172 194 201 196 202 222 240 200 175 202 233 243 252 256 269 274 273 271 280 359 43 29 17 5 23 28 23 24 25 36 34 36 37 38 42 66 74
253 206 163 112 105 148 187 186 196 201 208 227 248 205 182 228 237 253 252 250 263 263 260 252 250 232 129 61 20 21 16 27 33 35 36 46 63 72 74 65 62 68 79
188 174 163 154 163 159 160 184 192 203 227 236 252 235 195 232 231 237 248 255 250 259 252 235 234 220 202 210 209 203 143 43 50 92 100 86 78 82 80 75 68 83 95
190 167 164 166 157 155 165 181 194 206 218 242 232 242 233 233 223 231 242 258 260 265 256 240 232 222 211 219 225 220 216 201 199 193 166 139 122 132 112 97 89 92 112
172 172 164 162 165 171 181 190 196 206 212 232 224 240 228 222 232 244 236 233 252 260 254 231 236 241 241 244 243 238 239 225 224 202 197 192 195 195 204 211 204 202 211
167 173 161 159 161 177 181 197 210 202 212 229 227 233 251 285 324 303 294 272 268 278 296 298 280 284 333 322 355 337 283 234 232 234 228 222 221 224 224 234 239 249 255